Aérodrome :
LOGIN :

S'inscrire | Disclaimer

   EN    FR    IT 

 










Légende :    VFR   VFR Marginal   IFR   IFR Intensif   IFR Très Intensif
Visi : 
Plafond : 
>= 8 km
>= 3000ft
5 à 8 km
1000 à 3000 ft
1500m à 5 km
500 à 1000 ft
800 à 1500m
200 à 500 ft
< 800m
< 200 ft
Symboles :   Orages  Brouillard  Fortes neiges  Fortes précipitations  Vent > 20 kt
SIGMETs :   Divers  Orages  Givrage  Turbulence  Onde Orograph.  Cendres Volcan.







- Altitude de l'aérodrome : 278 ft
- Code IATA : RJK


LDRI - Rijeka

DERNIER METAR :
  • 230030Z 04006KT CAVOK 26/14 Q1020

METARs EXPIRÉS :
  • 230000Z 04007KT CAVOK 27/14 Q1020
  • 222330Z 01003KT 270V060 CAVOK 26/14 Q1020
  • 222300Z VRB02KT CAVOK 24/15 Q1021
  • 222230Z 33001KT CAVOK 25/15 Q1021
  • 222200Z 04002KT 330V120 CAVOK 26/15 Q1021

TAF TAF LDRI
Valide du 23 à 00h jusqu'au 24 à 00h UTC


222325Z 2300/2400 04006KT CAVOK TX33/2314Z TN22/2303Z
BECMG 2309/2311 29008KT
BECMG 2316/2318 VRB02KT
Pas de NOTAMs connus pour ce terrain.



MET'MAP, la Météo Aéronautique d'un coup d'oeil ! - Copyright ORBIFLY Décembre 2007 - Disclaimer

ORBIFLY MET'MAP TEAM :

Programmation & Développement : Alexandra Zaïnal
Conception & Développement : Baudouin d'Aumeries
Co-Programmation & Développement : Marc-Olivier Méhu
Soutien technique & logistique : Manuel Goepfert

Contact : metmap@orbifly.com




SOURCES & CREDITS :

   NOAA